Home   Weather   Catania   Past weeks

Flag for Italy Past Weather in Catania, Italy — Yesterday and Last 2 Weeks

72 °F

Passing clouds.

Feels Like: 74 °F
Forecast: 61 / 74 °F
Wind: 3 mph from East

Location: Catania / Fontanarossa

Current Time: Oct 26, 2016 at 7:17:12 PM

Latest Report: Oct 26, 2016 at 6:20 PM

Visibility: N/A

Pressure: 30.07 "Hg

Humidity: 73%

Dew Point: 63 °F

Location of CataniaLocation

Past Weather in Catania — Graph


Catania Temperature Yesterday

Maximum temperature yesterday: 77 °F (at 11:50 AM)
Minimum temperature yesterday: 59 °F (at 4:20 AM)
Average temperature yesterday: 67 °F

High & Low Weather Summary for the Past Weeks

High81 °F (Oct 21, 2:20 PM)94% (Oct 16, 2:20 AM)30.27 "Hg (Oct 16, 2:20 AM)
Low55 °F (Oct 13, 7:20 AM)24% (Oct 11, 5:20 PM)29.77 "Hg (Oct 11, 5:20 PM)
Average69 °F72%30.04 "Hg
* Reported Oct 11 5:20 PM — Oct 26 5:50 PM, Catania, Weather by CustomWeather, © 2016

Note: Actual official high and low records may vary slightly from our data, if they occured in-between our weather recording intervals... More about our weather records


Catania Weather History for the Previous 24 Hours

Scroll right to see more
Time TempWeatherWind HumidityBarometerVisibility
5:50 PM
Wed, Oct 26
73 °FSunny.5 mph69%30.07 "Hg10 mi
5:20 PM73 °FSunny.8 mph69%30.04 "Hg10 mi
4:50 PM75 °FSunny.10 mph61%30.07 "Hg10 mi
4:20 PM75 °FSunny.9 mph61%30.04 "Hg10 mi
3:50 PM75 °FSunny.7 mph61%30.07 "Hg10 mi
3:20 PM77 °FSunny.6 mph51%30.07 "Hg10 mi
2:50 PM77 °FSunny.6 mph54%30.07 "Hg10 mi
2:20 PM77 °FPassing clouds.6 mph54%30.07 "HgN/A
1:50 PM77 °FSunny.8 mph57%30.07 "Hg10 mi
1:20 PM77 °FSunny.7 mph54%30.09 "Hg10 mi
12:50 PM79 °FPassing clouds.6 mph51%30.09 "HgN/A
12:20 PM81 °FSunny.2 mph39%30.12 "Hg10 mi
11:50 AM79 °FPassing clouds.3 mph42%30.12 "HgN/A
11:20 AM77 °FSunny.2 mph47%30.12 "Hg10 mi
10:50 AM75 °FSunny.2 mph50%30.15 "Hg10 mi
10:20 AM72 °FPassing clouds.3 mph65%30.15 "HgN/A
9:50 AM68 °FPassing clouds.3 mph69%30.15 "HgN/A
9:20 AM64 °FPassing clouds.3 mph73%30.15 "HgN/A
8:50 AM63 °FPassing clouds.5 mph73%30.15 "HgN/A
8:20 AM61 °FSunny.2 mph77%30.12 "Hg10 mi
7:50 AM59 °FPassing clouds.3 mph82%30.12 "HgN/A
7:20 AM59 °FSunny.5 mph77%30.12 "Hg10 mi
6:50 AM59 °FClear.8 mph82%30.12 "Hg10 mi
6:20 AM59 °FClear.9 mph82%30.12 "Hg10 mi
5:50 AM63 °FClear.9 mph73%30.12 "Hg10 mi
5:20 AM59 °FClear.12 mph88%30.12 "Hg10 mi
4:50 AM61 °FClear.10 mph83%30.12 "Hg10 mi
4:20 AM61 °FClear.9 mph83%30.12 "Hg10 mi
3:50 AM61 °FClear.9 mph83%30.15 "Hg10 mi
3:20 AM61 °FClear.9 mph88%30.15 "Hg10 mi
2:50 AM63 °FClear.7 mph77%30.15 "Hg10 mi
2:20 AM63 °FClear.6 mph83%30.15 "Hg5 mi
1:50 AM61 °FClear.6 mph94%30.18 "Hg4 mi
1:20 AM63 °FClear.5 mph88%30.18 "Hg4 mi
12:50 AM64 °FClear.6 mph88%30.18 "Hg5 mi
12:20 AM64 °FClear.5 mph88%30.18 "Hg5 mi
11:50 PM
Tue, Oct 25
66 °FPassing clouds.3 mph88%30.18 "HgN/A
11:20 PM66 °FClear.6 mph83%30.18 "Hg10 mi
10:50 PM66 °FClear.8 mph88%30.21 "Hg10 mi
10:20 PM66 °FClear.5 mph88%30.21 "Hg5 mi
9:50 PM68 °FClear.5 mph83%30.21 "Hg10 mi
9:20 PM70 °FClear.2 mph78%30.21 "Hg10 mi
8:50 PM70 °FClear.3 mph83%30.21 "Hg10 mi
8:20 PM70 °FClear.3 mph83%30.21 "Hg10 mi
7:50 PM70 °FClear.6 mph83%30.21 "Hg10 mi
7:20 PM70 °FClear.5 mph83%30.21 "Hg10 mi
Weather by CustomWeather, © 2016

See weather overviewHow to use our weather pages